Main page
METAR-TAF:

METAR-TAF

Airports :

Carolina Airport

Carolina, Maranhão, Brazil

latitude: 07-19S, longitude: 047-28W, elevation: 183 m

Current weather observation

The report was made 11 hours and 44 minutes ago, at 20:00 UTC
Wind 2 kt from the West/Southwest
Temperature 31°C
Humidity 63%
Pressure 1009 hPa
Visibility 10 km or more
Few clouds at a height of 4000 ft

METAR: SBCI 162000Z 24002KT 9999 FEW040 31/23 Q1009

Time: 04:44 (07:44 UTC)


TAF: missing

Weather observations and forecasts of more than 4000 airports (METAR and TAF reports).

The available stations are represented by yellow and red dots on the map.

Hover mouse over dot to see the name of the station.

Then click to see weather observations and forecasts.

To change the map : click on the green buttons with a black cross to zoom in, on the green button with a dash to zoom out, or on the green arrows for adjacent maps.


METAR-TAF: